Location: Boiro
(42.6475°N, 8.8834°W)
Time: 05:16:02
(UTC+01:00)

Transit 4A - Pass Details

Date: 01 December 2021
Orbit: 864 x 980 km, 66.8° (Epoch: 17 January)

Event Time Altitude Azimuth Distance (km) Brightness Sun altitude
Rises 20:35:43 0° 186° (S) 3,437 11.0 -27.4°
Reaches altitude 10° 20:38:17 10° 179° (S) 2,513 10.2 -27.9°
Enters shadow 20:39:56 19° 170° (S) 1,966 9.5 -28.2°
